GFSFLT2_prec_precacc_105.txt.gz
Total_Precipitation_Accumulation
6.08 3.85 3.32 3.56 2.42 2.36 3.31 3.30 2.77 1.74 1.34 1.10 1.19 0.85 0.76 0.65 0.48 0.37 0.31 0.30 0.47 0.53 0.65 0.66 0.55 0.39 0.31 0.25 0.16 0.06 0.05 0.06
7.10 5.14 3.17 1.75 2.48 2.23 2.23 3.05 3.65 2.35 1.86 1.64 1.27 1.10 0.89 0.55 0.38 0.44 0.57 0.53 0.40 0.29 0.41 0.48 0.44 0.31 0.22 0.16 0.11 0.16 0.10 0.04
6.63 6.38 3.96 2.72 2.47 2.35 1.79 1.70 2.68 3.59 2.42 1.90 1.60 0.85 0.79 0.56 0.53 0.50 0.49 0.57 0.61 0.54 0.48 0.41 0.36 0.31 0.20 0.13 0.11 0.10 0.06 0.01
2.92 3.24 2.96 2.26 2.98 3.04 1.70 1.38 1.16 2.63 2.88 2.05 1.44 0.87 0.78 0.72 0.50 0.52 0.60 0.49 0.64 0.66 0.68 0.52 0.39 0.21 0.19 0.14 0.04 0.09 0.04 0.01
1.24 1.51 1.42 1.35 1.82 1.54 1.46 1.24 1.05 1.33 2.51 1.95 1.22 0.83 0.71 0.95 0.43 0.47 0.85 0.74 0.67 0.58 0.44 0.37 0.34 0.28 0.14 0.08 0.12 0.09 0.04 0.02
1.01 0.80 0.99 1.14 1.34 1.23 0.87 0.93 0.92 0.93 1.71 1.78 1.19 0.79 0.47 0.57 0.27 0.39 0.94 0.88 0.56 0.34 0.21 0.24 0.32 0.35 0.23 0.21 0.05 0.10 0.05 0.01
0.96 0.77 0.79 0.83 0.68 0.78 0.67 0.54 0.84 0.76 0.85 1.45 1.16 0.69 0.32 0.34 0.32 0.35 0.75 0.72 0.76 0.38 0.20 0.24 0.27 0.33 0.28 0.21 0.04 0.11 0.03 0.01
1.00 1.21 0.86 0.88 0.65 0.61 0.59 0.52 0.62 0.82 0.73 0.99 1.32 0.72 0.41 0.40 0.37 0.30 0.49 0.53 0.62 0.50 0.18 0.26 0.27 0.24 0.26 0.15 0.05 0.12 0.03 0.00
1.14 1.62 1.19 1.05 0.61 0.66 0.65 0.67 0.54 0.69 0.77 0.99 1.15 0.80 0.55 0.42 0.43 0.31 0.31 0.38 0.34 0.44 0.37 0.35 0.29 0.26 0.22 0.16 0.07 0.08 0.02 0.00
1.32 1.42 0.99 1.07 0.82 0.91 1.27 0.69 0.47 0.56 0.65 0.75 0.87 0.87 0.64 0.57 0.47 0.35 0.38 0.34 0.21 0.30 0.20 0.26 0.31 0.26 0.21 0.12 0.09 0.04 0.02 0.00
0.89 0.98 0.99 1.32 1.59 1.63 1.17 0.62 0.34 0.41 0.46 0.53 0.72 1.00 0.66 0.58 0.54 0.40 0.42 0.40 0.21 0.17 0.10 0.13 0.24 0.27 0.20 0.16 0.10 0.04 0.00 0.00
0.76 0.84 1.33 1.81 1.49 0.67 0.39 0.40 0.31 0.37 0.39 0.42 0.61 1.11 0.78 0.65 0.69 0.56 0.50 0.40 0.30 0.19 0.10 0.14 0.17 0.16 0.19 0.19 0.11 0.03 0.00 0.00
0.70 0.86 0.73 0.52 0.32 0.30 0.26 0.29 0.20 0.21 0.22 0.40 0.51 0.82 0.92 0.69 0.71 0.65 0.54 0.33 0.20 0.14 0.11 0.11 0.22 0.21 0.23 0.28 0.14 0.03 0.01 0.00
0.41 0.32 0.20 0.19 0.15 0.12 0.12 0.15 0.13 0.09 0.14 0.26 0.76 0.77 0.75 0.70 0.73 0.57 0.45 0.41 0.39 0.27 0.13 0.11 0.20 0.26 0.16 0.15 0.11 0.07 0.02 0.00
0.09 0.14 0.09 0.14 0.08 0.06 0.05 0.14 0.24 0.19 0.19 0.25 0.51 0.49 0.57 0.54 0.69 0.68 0.50 0.48 0.51 0.42 0.23 0.12 0.17 0.25 0.16 0.18 0.21 0.16 0.16 0.04
0.12 0.12 0.13 0.05 0.03 0.03 0.02 0.03 0.09 0.11 0.13 0.14 0.30 0.34 0.41 0.46 0.44 0.57 0.44 0.47 0.49 0.53 0.45 0.33 0.34 0.37 0.18 0.06 0.06 0.17 0.26 0.26
0.09 0.11 0.17 0.09 0.03 0.02 0.04 0.03 0.02 0.07 0.13 0.18 0.25 0.34 0.30 0.44 0.50 0.59 0.49 0.45 0.49 0.50 0.55 0.50 0.48 0.33 0.16 0.16 0.09 0.16 0.17 0.18
0.11 0.11 0.09 0.09 0.06 0.03 0.08 0.14 0.09 0.07 0.09 0.09 0.13 0.22 0.22 0.34 0.58 0.58 0.59 0.56 0.67 0.61 0.64 0.65 0.61 0.54 0.31 0.31 0.26 0.24 0.22 0.30
0.10 0.05 0.06 0.05 0.05 0.07 0.11 0.22 0.18 0.18 0.10 0.08 0.14 0.12 0.11 0.16 0.34 0.49 0.51 0.69 0.75 0.94 0.90 0.74 0.73 0.72 0.78 0.67 0.57 0.49 0.33 0.37
0.09 0.04 0.06 0.07 0.14 0.26 0.23 0.22 0.29 0.40 0.30 0.17 0.26 0.16 0.11 0.15 0.25 0.49 0.61 0.76 0.74 0.86 1.06 1.04 1.05 0.97 0.87 0.77 0.59 0.45 0.42 0.49

GFSFLT2_prec_precacc_108.txt.gz
Total_Precipitation_Accumulation
6.08 3.85 3.32 3.56 2.42 2.36 3.31 3.30 2.77 1.74 1.34 1.10 1.19 0.85 0.76 0.65 0.48 0.38 0.33 0.30 0.47 0.53 0.65 0.66 0.55 0.39 0.31 0.26 0.22 0.12 0.06 0.10
7.10 5.14 3.17 1.75 2.48 2.23 2.23 3.05 3.65 2.35 1.86 1.64 1.27 1.10 0.89 0.55 0.38 0.45 0.61 0.55 0.40 0.29 0.41 0.48 0.44 0.31 0.24 0.17 0.13 0.26 0.18 0.12
6.63 6.38 3.96 2.72 2.47 2.35 1.79 1.70 2.68 3.59 2.42 1.90 1.60 0.85 0.79 0.56 0.53 0.52 0.54 0.58 0.61 0.54 0.48 0.41 0.36 0.31 0.24 0.24 0.12 0.12 0.13 0.03
2.92 3.24 2.96 2.26 2.98 3.04 1.70 1.38 1.16 2.63 2.88 2.05 1.44 0.87 0.78 0.72 0.50 0.53 0.61 0.50 0.64 0.66 0.68 0.52 0.39 0.21 0.19 0.19 0.09 0.09 0.06 0.04
1.24 1.51 1.42 1.35 1.82 1.54 1.46 1.24 1.05 1.33 2.51 1.95 1.22 0.83 0.71 0.95 0.43 0.47 0.85 0.75 0.68 0.58 0.44 0.37 0.34 0.28 0.14 0.08 0.13 0.09 0.05 0.06
1.01 0.80 0.99 1.14 1.34 1.23 0.87 0.93 0.92 0.93 1.71 1.78 1.19 0.79 0.47 0.57 0.27 0.39 0.94 0.89 0.57 0.34 0.21 0.24 0.32 0.35 0.23 0.22 0.06 0.14 0.09 0.04
0.96 0.77 0.79 0.83 0.68 0.78 0.67 0.54 0.84 0.76 0.85 1.45 1.16 0.69 0.32 0.34 0.32 0.35 0.75 0.72 0.76 0.38 0.20 0.24 0.27 0.33 0.28 0.21 0.04 0.14 0.08 0.07
1.00 1.21 0.86 0.88 0.65 0.61 0.59 0.52 0.62 0.82 0.73 0.99 1.32 0.72 0.41 0.40 0.37 0.30 0.49 0.53 0.62 0.50 0.18 0.26 0.28 0.25 0.27 0.15 0.06 0.15 0.11 0.07
1.14 1.62 1.19 1.05 0.61 0.66 0.65 0.67 0.54 0.69 0.77 0.99 1.15 0.80 0.55 0.42 0.43 0.31 0.31 0.38 0.34 0.44 0.37 0.35 0.31 0.28 0.23 0.16 0.09 0.12 0.08 0.07
1.32 1.42 0.99 1.07 0.82 0.91 1.27 0.69 0.47 0.56 0.65 0.75 0.87 0.87 0.64 0.57 0.47 0.35 0.38 0.34 0.21 0.30 0.20 0.28 0.34 0.28 0.21 0.13 0.10 0.05 0.04 0.06
0.89 0.98 0.99 1.32 1.59 1.63 1.17 0.62 0.34 0.41 0.46 0.53 0.72 1.00 0.66 0.58 0.54 0.40 0.42 0.40 0.22 0.17 0.10 0.13 0.25 0.29 0.21 0.17 0.11 0.05 0.04 0.07
0.76 0.84 1.33 1.81 1.49 0.67 0.39 0.40 0.31 0.37 0.39 0.42 0.61 1.11 0.78 0.65 0.69 0.57 0.50 0.40 0.30 0.19 0.12 0.16 0.18 0.18 0.20 0.22 0.15 0.08 0.06 0.11
0.70 0.86 0.73 0.52 0.32 0.30 0.26 0.29 0.20 0.21 0.22 0.40 0.51 0.82 0.92 0.69 0.71 0.65 0.54 0.33 0.20 0.14 0.13 0.15 0.24 0.21 0.24 0.31 0.19 0.14 0.07 0.09
0.41 0.32 0.20 0.19 0.15 0.12 0.12 0.15 0.13 0.09 0.14 0.26 0.76 0.77 0.75 0.70 0.73 0.57 0.45 0.41 0.40 0.27 0.13 0.11 0.20 0.26 0.16 0.19 0.19 0.27 0.09 0.04
0.09 0.14 0.09 0.14 0.08 0.06 0.05 0.15 0.24 0.19 0.19 0.25 0.51 0.49 0.57 0.54 0.69 0.68 0.50 0.48 0.52 0.42 0.23 0.12 0.17 0.26 0.16 0.20 0.25 0.25 0.20 0.04
0.12 0.12 0.15 0.07 0.06 0.04 0.02 0.03 0.09 0.11 0.13 0.14 0.30 0.34 0.41 0.46 0.44 0.57 0.44 0.47 0.49 0.53 0.45 0.35 0.39 0.44 0.21 0.07 0.06 0.18 0.27 0.29
0.09 0.12 0.20 0.15 0.11 0.07 0.08 0.04 0.02 0.07 0.13 0.18 0.25 0.34 0.30 0.44 0.50 0.59 0.49 0.45 0.50 0.51 0.58 0.53 0.58 0.49 0.29 0.21 0.10 0.16 0.18 0.20
0.11 0.11 0.09 0.10 0.08 0.04 0.09 0.16 0.09 0.07 0.09 0.09 0.13 0.22 0.22 0.34 0.58 0.59 0.60 0.56 0.67 0.62 0.66 0.73 0.76 0.77 0.51 0.43 0.28 0.25 0.23 0.30
0.10 0.05 0.06 0.05 0.05 0.07 0.12 0.25 0.18 0.18 0.10 0.08 0.14 0.12 0.11 0.16 0.34 0.49 0.51 0.69 0.76 0.95 0.94 0.86 1.01 1.01 1.04 0.78 0.58 0.51 0.34 0.38
0.09 0.04 0.06 0.07 0.14 0.26 0.23 0.23 0.31 0.41 0.30 0.17 0.26 0.16 0.11 0.15 0.25 0.49 0.62 0.76 0.74 0.87 1.11 1.19 1.25 1.33 1.12 0.95 0.66 0.48 0.45 0.51

GFSFLT2_prec_precacc_114.txt.gz
Total_Precipitation_Accumulation
6.08 3.85 3.32 3.56 2.42 2.36 3.31 3.30 2.77 1.74 1.34 1.10 1.19 0.85 0.76 0.65 0.48 0.38 0.33 0.30 0.47 0.53 0.65 0.66 0.55 0.39 0.31 0.26 0.22 0.14 0.10 0.16
7.10 5.14 3.17 1.75 2.48 2.23 2.23 3.05 3.65 2.35 1.86 1.64 1.27 1.10 0.89 0.55 0.38 0.45 0.62 0.55 0.40 0.29 0.41 0.48 0.44 0.31 0.25 0.21 0.14 0.28 0.20 0.13
6.63 6.38 3.96 2.72 2.47 2.35 1.79 1.70 2.68 3.59 2.42 1.90 1.60 0.85 0.79 0.56 0.53 0.53 0.57 0.58 0.61 0.54 0.48 0.41 0.36 0.31 0.28 0.45 0.20 0.16 0.16 0.05
2.92 3.24 2.96 2.26 2.98 3.04 1.70 1.38 1.16 2.63 2.88 2.05 1.44 0.87 0.78 0.72 0.50 0.53 0.61 0.51 0.65 0.66 0.68 0.52 0.39 0.21 0.20 0.26 0.21 0.40 0.30 0.22
1.24 1.51 1.42 1.35 1.82 1.54 1.46 1.24 1.05 1.33 2.51 1.95 1.22 0.83 0.71 0.95 0.43 0.47 0.85 0.75 0.68 0.58 0.44 0.37 0.34 0.28 0.14 0.08 0.15 0.19 0.17 0.21
1.01 0.80 0.99 1.14 1.34 1.23 0.87 0.93 0.92 0.93 1.71 1.78 1.19 0.79 0.47 0.57 0.27 0.39 0.94 0.89 0.57 0.34 0.21 0.24 0.32 0.35 0.23 0.22 0.06 0.18 0.15 0.17
0.96 0.77 0.79 0.83 0.68 0.78 0.67 0.54 0.84 0.76 0.85 1.45 1.16 0.69 0.32 0.34 0.32 0.35 0.75 0.72 0.76 0.38 0.20 0.24 0.27 0.33 0.28 0.21 0.04 0.16 0.14 0.24
1.00 1.21 0.86 0.88 0.65 0.61 0.59 0.52 0.62 0.82 0.73 0.99 1.32 0.72 0.41 0.40 0.37 0.30 0.49 0.53 0.62 0.50 0.18 0.26 0.28 0.25 0.27 0.15 0.06 0.15 0.18 0.23
1.14 1.62 1.19 1.05 0.61 0.66 0.65 0.67 0.54 0.69 0.77 0.99 1.15 0.80 0.55 0.42 0.43 0.32 0.32 0.38 0.34 0.44 0.37 0.35 0.31 0.28 0.23 0.16 0.09 0.12 0.12 0.18
1.32 1.42 0.99 1.07 0.82 0.91 1.27 0.69 0.47 0.56 0.65 0.75 0.87 0.87 0.64 0.57 0.47 0.35 0.38 0.34 0.21 0.30 0.20 0.28 0.34 0.28 0.21 0.13 0.10 0.05 0.06 0.14
0.89 0.98 0.99 1.32 1.59 1.63 1.17 0.62 0.34 0.41 0.46 0.53 0.72 1.00 0.66 0.58 0.54 0.40 0.42 0.40 0.22 0.17 0.10 0.13 0.25 0.29 0.24 0.19 0.11 0.05 0.04 0.11
0.76 0.84 1.33 1.81 1.50 0.68 0.39 0.40 0.31 0.37 0.39 0.42 0.61 1.11 0.78 0.65 0.69 0.57 0.50 0.40 0.30 0.19 0.12 0.16 0.18 0.19 0.25 0.26 0.16 0.09 0.06 0.15
0.70 0.86 0.73 0.52 0.32 0.30 0.26 0.29 0.20 0.21 0.22 0.40 0.51 0.82 0.92 0.69 0.71 0.65 0.54 0.33 0.20 0.14 0.14 0.16 0.25 0.23 0.33 0.38 0.23 0.16 0.07 0.13
0.41 0.32 0.20 0.19 0.15 0.14 0.13 0.15 0.13 0.09 0.14 0.26 0.76 0.77 0.75 0.70 0.73 0.57 0.45 0.41 0.40 0.27 0.14 0.12 0.21 0.29 0.23 0.27 0.27 0.41 0.15 0.07
0.09 0.14 0.09 0.16 0.10 0.09 0.09 0.16 0.27 0.21 0.19 0.25 0.51 0.49 0.57 0.54 0.69 0.68 0.50 0.49 0.52 0.43 0.24 0.14 0.19 0.28 0.20 0.24 0.28 0.30 0.24 0.07
0.12 0.12 0.15 0.07 0.11 0.08 0.07 0.05 0.10 0.11 0.13 0.15 0.30 0.34 0.41 0.46 0.44 0.57 0.44 0.47 0.50 0.54 0.46 0.37 0.42 0.46 0.24 0.10 0.10 0.19 0.28 0.32
0.09 0.12 0.22 0.16 0.12 0.12 0.17 0.09 0.09 0.09 0.15 0.21 0.28 0.35 0.30 0.44 0.50 0.59 0.49 0.46 0.50 0.52 0.58 0.57 0.62 0.53 0.30 0.24 0.14 0.20 0.20 0.22
0.11 0.11 0.10 0.13 0.13 0.10 0.11 0.17 0.11 0.09 0.11 0.10 0.14 0.23 0.23 0.34 0.59 0.59 0.60 0.57 0.68 0.63 0.67 0.75 0.79 0.81 0.56 0.52 0.38 0.30 0.26 0.32
0.10 0.05 0.07 0.06 0.07 0.12 0.17 0.32 0.20 0.19 0.11 0.08 0.14 0.12 0.11 0.16 0.34 0.50 0.52 0.70 0.77 0.96 0.96 0.89 1.05 1.05 1.11 0.91 0.72 0.61 0.40 0.43
0.09 0.04 0.06 0.08 0.15 0.29 0.27 0.27 0.33 0.44 0.31 0.17 0.27 0.16 0.12 0.15 0.25 0.49 0.62 0.77 0.75 0.89 1.13 1.22 1.28 1.43 1.33 1.22 0.92 0.66 0.59 0.67

GFSFLT2_prec_precacc_117.txt.gz
Total_Precipitation_Accumulation
6.08 3.85 3.32 3.56 2.42 2.36 3.31 3.30 2.77 1.74 1.34 1.10 1.19 0.85 0.76 0.65 0.48 0.38 0.33 0.31 0.47 0.53 0.65 0.66 0.55 0.39 0.31 0.26 0.23 0.19 0.11 0.16
7.10 5.14 3.17 1.75 2.48 2.23 2.23 3.05 3.65 2.35 1.86 1.64 1.27 1.10 0.89 0.55 0.38 0.45 0.62 0.55 0.40 0.29 0.41 0.48 0.44 0.31 0.25 0.21 0.17 0.36 0.20 0.13
6.63 6.38 3.96 2.72 2.47 2.35 1.79 1.70 2.68 3.59 2.42 1.90 1.60 0.85 0.79 0.56 0.53 0.53 0.57 0.58 0.61 0.54 0.48 0.41 0.36 0.31 0.28 0.48 0.39 0.29 0.21 0.07
2.92 3.24 2.96 2.26 2.98 3.04 1.70 1.38 1.16 2.63 2.88 2.05 1.44 0.87 0.78 0.72 0.50 0.53 0.61 0.51 0.65 0.66 0.68 0.52 0.39 0.21 0.20 0.26 0.26 0.56 0.48 0.38
1.24 1.51 1.42 1.35 1.82 1.54 1.46 1.24 1.05 1.33 2.51 1.95 1.22 0.83 0.71 0.95 0.43 0.47 0.85 0.75 0.68 0.58 0.44 0.37 0.34 0.28 0.14 0.08 0.15 0.23 0.28 0.38
1.01 0.80 0.99 1.14 1.34 1.23 0.87 0.93 0.92 0.93 1.71 1.78 1.19 0.79 0.47 0.57 0.27 0.39 0.94 0.89 0.57 0.34 0.21 0.24 0.32 0.35 0.23 0.22 0.06 0.20 0.19 0.25
0.96 0.77 0.79 0.83 0.68 0.78 0.67 0.55 0.84 0.76 0.85 1.45 1.16 0.69 0.32 0.34 0.32 0.35 0.75 0.72 0.76 0.38 0.20 0.24 0.27 0.33 0.28 0.21 0.04 0.16 0.16 0.27
1.00 1.21 0.86 0.88 0.65 0.61 0.59 0.52 0.62 0.82 0.73 0.99 1.32 0.72 0.41 0.40 0.37 0.30 0.49 0.53 0.62 0.50 0.18 0.26 0.28 0.25 0.27 0.15 0.06 0.15 0.19 0.31
1.14 1.62 1.19 1.05 0.61 0.66 0.65 0.67 0.54 0.69 0.77 0.99 1.15 0.80 0.55 0.42 0.43 0.32 0.32 0.38 0.34 0.44 0.37 0.35 0.31 0.28 0.23 0.16 0.09 0.12 0.12 0.22
1.32 1.42 0.99 1.07 0.82 0.91 1.27 0.69 0.47 0.56 0.65 0.75 0.87 0.87 0.64 0.57 0.47 0.35 0.38 0.34 0.21 0.30 0.20 0.28 0.34 0.28 0.21 0.13 0.10 0.05 0.06 0.14
0.89 0.98 0.99 1.32 1.59 1.63 1.17 0.62 0.34 0.41 0.46 0.53 0.72 1.00 0.66 0.58 0.54 0.40 0.42 0.41 0.22 0.17 0.10 0.13 0.25 0.29 0.24 0.19 0.11 0.05 0.04 0.11
0.76 0.84 1.33 1.81 1.50 0.68 0.39 0.40 0.31 0.37 0.39 0.42 0.61 1.11 0.78 0.65 0.69 0.57 0.50 0.41 0.31 0.19 0.12 0.16 0.18 0.19 0.25 0.26 0.16 0.09 0.06 0.15
0.70 0.86 0.73 0.52 0.32 0.30 0.26 0.30 0.20 0.21 0.22 0.40 0.51 0.82 0.92 0.69 0.71 0.65 0.54 0.34 0.21 0.14 0.14 0.16 0.25 0.23 0.33 0.38 0.23 0.16 0.08 0.13
0.41 0.33 0.20 0.19 0.15 0.21 0.19 0.18 0.13 0.09 0.14 0.26 0.76 0.77 0.75 0.70 0.73 0.57 0.45 0.42 0.40 0.28 0.14 0.12 0.21 0.29 0.23 0.27 0.28 0.42 0.16 0.08
0.09 0.15 0.10 0.20 0.23 0.20 0.14 0.18 0.27 0.21 0.19 0.25 0.51 0.49 0.57 0.54 0.69 0.68 0.50 0.49 0.52 0.43 0.24 0.14 0.19 0.28 0.20 0.24 0.28 0.30 0.24 0.07
0.12 0.12 0.17 0.19 0.30 0.10 0.12 0.07 0.10 0.11 0.13 0.15 0.30 0.34 0.41 0.46 0.44 0.57 0.44 0.47 0.50 0.54 0.47 0.37 0.43 0.47 0.25 0.11 0.11 0.20 0.29 0.32
0.09 0.12 0.22 0.17 0.14 0.13 0.18 0.10 0.11 0.09 0.15 0.21 0.29 0.36 0.30 0.44 0.50 0.59 0.49 0.46 0.50 0.52 0.59 0.57 0.62 0.53 0.31 0.24 0.15 0.20 0.20 0.22
0.11 0.11 0.10 0.13 0.14 0.12 0.12 0.18 0.12 0.09 0.11 0.10 0.14 0.24 0.23 0.34 0.59 0.59 0.60 0.57 0.68 0.63 0.67 0.75 0.80 0.82 0.57 0.52 0.38 0.31 0.26 0.33
0.10 0.05 0.07 0.06 0.07 0.12 0.18 0.33 0.21 0.19 0.11 0.08 0.14 0.12 0.11 0.16 0.34 0.50 0.52 0.70 0.77 0.96 0.96 0.89 1.06 1.06 1.12 0.92 0.73 0.62 0.41 0.44
0.09 0.04 0.06 0.08 0.15 0.29 0.28 0.29 0.34 0.45 0.31 0.19 0.31 0.18 0.12 0.16 0.25 0.50 0.63 0.78 0.76 0.89 1.13 1.22 1.29 1.44 1.34 1.23 0.93 0.66 0.60 0.69